Regional Weather Roundup
Issued by NWS Grand Forks, ND

Home | Current Version | Previous Version | Text Only | Print | Product List | Glossary On
Versions: 1 2 3 4 5 6 7 8 9 10 11 12 13 14 15 16 17 18 19 20 21 22 23 24 25 26 27 28 29 30 31 32 33 34 35 36 37 38 39 40 41 42 43 44 45 46 47 48 49 50
000
ASUS43 KFGF 181931
RWRFGF
PRAIRIE TO PINES  WEATHER ROUNDUP
NATIONAL WEATHER SERVICE EASTERN NORTH DAKOTA/GRAND FORKS ND
200 PM CDT WED JUL 18 2018

 **SATELLITE DATA USED TO AUGMENT SKY COVER AT AUTOMATED STATIONS**
 *****  WEATHER ACROSS EASTERN NORTH DAKOTA  *****

CITY           SKY/WX    TMP DP  RH WIND       PRES   REMARKS
GRAND FORKS    PTSUNNY   83  69  62 S10       29.95F
GRAND FRKS AFB PTSUNNY   83  68  61 S10       29.96F
GRAND FRKS NWS   N/A     83  70  64 SW6       29.92F
DEVILS LAKE    FAIR      83  65  54 SE12      29.95F
FARGO          FAIR      83  64  52 S10G18    29.98F
WAHPETON ARPT  FAIR      79  61  53 SE8       29.99F
$$

 ***** WEATHER ACROSS CENTRAL AND WESTERN NORTH DAKOTA  *****

CITY           SKY/WX    TMP DP  RH WIND       PRES   REMARKS
BISMARCK       FAIR      80  66  62 E3        29.95F
MINOT          FAIR      87  66  49 SE8       29.91F
JAMESTOWN      FAIR      83  65  54 S10       29.96F
MINOT AFB      FAIR      75  66  73 S8        29.88F
GARRISON         N/A     76  65  68 S12       29.94F
WILLISTON      FAIR      83  61  47 S9        29.92F
DICKINSON      FAIR      73  61  65 E9        29.96F
HETTINGER      CLOUDY    70  65  84 E10       29.94F
$$

 *****  OTHER AIRPORT OBSERVATIONS IN OUR AREA  *****

CITY           SKY/WX    TMP DP  RH WIND       PRES   REMARKS
WALHALLA       FAIR      82  66  57 S12       29.94S
GRAFTON AIRPOR FAIR      82  68  61 S9G20     29.96F
VALLEY CITY AR FAIR      81  66  61 S9        30.00S
CANDO          FAIR      82  72  69 S9        29.95F
CAVALIER APRT  FAIR      82  68  61 S12       29.93F
GWINNER        CLEAR     79  66  65 CALM      29.99S
SHEYENNE NWR     N/A     82  65  55 SE7       29.95S
ROLLA          FAIR      79  68  69 SE14      29.95F
 ***** THE ABOVE OBSERVATIONS ARE NON NWS ARE NOT QUALITY
       CONTROLLED AND MAY MIS-REPORT RAIN FOR SNOW...
$$

  *****  WEATHER ACROSS NORTHERN MINNESOTA  *****

CITY           SKY/WX    TMP DP  RH WIND       PRES   REMARKS
FLAG ISLAND    NOT AVBL
WARROAD        FAIR      81  57  44 S6        29.99F
ROSEAU         FAIR      81  55  41 S9        29.99S
HALLOCK        FAIR      82  63  51 S9G17     29.95F
THF RVR FALLS  FAIR      79  66  64 S9        30.00F
BAUDETTE       FAIR      81  58  45 S7        30.00F
WASKISH        FAIR      79  63  57 W8        30.02S
CROOKSTON      FAIR      81  66  61 S10       29.97F
$$
  *****  WEATHER ACROSS CENTRAL AND WEST MINNESOTA  *****

CITY           SKY/WX    TMP DP  RH WIND       PRES   REMARKS
FOSSTON        FAIR      81  64  57 S9        30.01F
BEMIDJI        FAIR      79  62  55 SW6       30.03F
PARK RAPIDS    CLOUDY    78  61  55 S12       30.05F
ELBOW LAKE     FAIR      76  66  70 E9        30.03F
WADENA         FAIR      79  64  61 S7        30.04F
DETROIT LAKES  PTSUNNY   79  63  57 S9        30.04S
MOORHEAD       FAIR      81  64  57 SE8       29.99F
FERGUS FALLS   FAIR      79  64  61 SE10      30.01F
MORRIS MN      FAIR      81  68  65 SE7       30.01F
STAPLES        FAIR      79  61  53 S8        30.05S
$$
  *****  WEATHER ELSEWHERE ACROSS MINNESOTA  *****

CITY           SKY/WX    TMP DP  RH WIND       PRES   REMARKS
DULUTH         FAIR      79  56  45 W7        30.06F
INTRNTL FALLS  FAIR      80  56  43 W7        30.02F
ELY            FAIR      79  54  41 SW7       30.04F
CLOQUET        FAIR      77  52  41 CALM      30.06F
WHEATON        FAIR      79  66  65 SE9       30.01F
BRAINERD       FAIR      79  59  50 S8        30.06F
HIBBING        FAIR      75  55  49 VRB5      30.05F
ALEXANDRIA     PTSUNNY   81  64  56 S12       30.07S
SAINT CLOUD    FAIR      80  58  46 S8        30.05F
MINNEAPOLIS    PTSUNNY   82  58  43 E8        30.06F
$$

  *****  WEATHER ACROSS SOUTH DAKOTA  *****

CITY           SKY/WX    TMP DP  RH WIND       PRES   REMARKS
SIOUX FALLS    PTSUNNY   79  65  62 SE13      30.01F
BROOKINGS      FAIR      79  62  56 SE15G21   30.02F
WATERTOWN      FAIR      80  59  48 SE13      30.01F
HURON          LGT RAIN  74  66  76 SE12      29.97F
SISSETON         N/A     79  68  69 SE10      29.99F
ABERDEEN       FAIR      79  65  62 S13       29.98F
MITCHELL       CLOUDY    78  67  68 S14       29.98F
PIERRE         FAIR      80  68  66 SE15      29.91F
MOBRIDGE       CLOUDY    73  66  78 SE13      29.93F
RAPID CITY     FAIR      77  63  61 S8        29.97F
$$

  *****  SOME WEATHER IN NEARBY STATES *****

CITY           SKY/WX    TMP DP  RH WIND       PRES   REMARKS
GLASGOW MT     FAIR      90  52  27 S8        29.90F
GREAT FALLS MT FAIR      91  39  16 W10G21    29.98F
CHEYENNE WY    FAIR      85  35  16 NW21G29   30.20F
SCOTTSBLUFF NE FAIR      83  64  52 NW7       30.06F
OMAHA NE       PTSUNNY   84  67  56 SE14      29.99F
DES MOINES IA  PTSUNNY   85  64  49 SE12      30.02F
DAVENPORT IA   PTSUNNY   80  64  58 E8        30.10F
CHICAGO IL     FAIR      78  50  37 NE12      30.12S
EAU CLAIRE WI  FAIR      79  53  40 S5        30.07F
LA CROSSE WI   FAIR      80  57  45 E7        30.06F
$$

  *****  SOME NATIONAL WEATHER *****

CITY           SKY/WX    TMP DP  RH WIND       PRES   REMARKS
LA GUARDIA NY  FAIR      84  55  36 N14       29.89S
RALEIGH NC     PTSUNNY   86  59  39 NE7       29.97S
ATLANTA GA     PTSUNNY   91  72  53 NW12      29.96F HX  98
NEW ORLEANS LA PTSUNNY   80  76  87 S8        29.99F
OKLAHOMA CITY  CLOUDY    84  72  67 SE5       29.97F
ALBUQUERQUE NM FAIR      88  53  30 VRB3      30.23F
SALT LAKE CITY FAIR      92  34  13 N8G16     30.14F
LOS ANGELES CA CLOUDY    74  65  73 W9        30.02F
BOISE ID       FAIR      91  42  18 W9        30.07S
SEATTLE WA     CLOUDY    65  54  67 SW6       30.21R
$$

*** WEATHER ACROSS MANITOBA...SASKATCHEWAN AND ONTARIO ***
                ***ONTARIO***

CITY           SKY/WX    TMP DP  RH WIND       PRES   REMARKS
GERALDTON      MOSUNNY   75  52  43 SW13G22   29.95F
THUNDER BAY    MOSUNNY   81  57  44 VRB2      29.99F
SIOUX LOOKOUT  MOSUNNY   81  55  41 SW13G20   29.97F
TORONTO        MOSUNNY   73  54  49 SE12      30.06S
BIG TROUT LK   MOSUNNY   82  61  47 W14G26    29.71S
PICKLE LAKE    MOSUNNY   84  55  37 W16G26    29.85F
DRYDEN         SUNNY     81  46  30 W13G18    29.98F
KENORA         MOSUNNY   79  59  50 SW13      30.00F
$$
                *** MANITOBA***

CITY           SKY/WX    TMP DP  RH WIND       PRES   REMARKS
BRANDON        PTSUNNY   84  64  51 S12       29.90F
DAUPHIN        SUNNY     88  61  40 W9        29.85F
ISLAND LAKE    PTSUNNY   82  59  44 W10       29.80F
PILOT MOUND      N/A     81  64  57 S12         N/A
THE PAS        SUNNY     82  57  42 NE7       29.80F
THOMPSON       MOSUNNY   79  48  34 NW12G20   29.81S
WINNIPEG       MOSUNNY   84  57  39 S16       29.93F
CHURCHILL      PTSUNNY   68  57  68 NW10      29.64S
GILLAM         MOSUNNY   73  54  49 W14G20    29.74F
$$
                ***SASKATCHEWAN***

CITY           SKY/WX    TMP DP  RH WIND       PRES   REMARKS
ESTEVAN        CLOUDY    84  64  51 S8        29.90F
KINDERSLEY     PTSUNNY   77  64  65 N21G28    29.86S
LLOYDMINSTER   PTSUNNY   70  61  73 N14G22    29.86F
PRINCE ALBERT  PTSUNNY   82  68  61 S5        29.81R
REGINA         PTSUNNY   86  61  42 S18       29.86S
YORKTON        PTSUNNY   86  61  42 S14G22    29.84F
N. BATTLEFORD  PTSUNNY   66  64  94 NW10G17   29.87F
LA RONGE       CLOUDY    73  52  46 NE10      29.86S
SASKATOON      PTSUNNY   84  63  48 W7        29.79F
SWIFT CURRENT  PTSUNNY   79  50  36 S20G25    29.86F
$$
NOTE: THESE ARE AUTOMATED STATIONS WITH LIMITED QUALITY CONTROL
      "FAIR" INDICATES FEW OR NO CLOUDS BELOW 12,000 FEET WITH NO
      SIGNIFICANT WEATHER AND/OR OBSTRUCTIONS TO VISIBILITY.
      SKY/WX - SKY CONDITION AND SIGNIFICANT WEATHER.
      TMP - AIR TEMPERATURE.    DP   - DEWPOINT TEMPERATURE.
      RH  - RELATIVE HUMIDITY.  PRES - PRESSURE.
      HX  - HEAT INDEX.         WCI  - WIND CHILL INDEX.
$



USA.gov is the U.S. government's official web portal to all federal, state and local government web resources and services.